Header for Extended Forecast Station List Page

Search by: ID | Name | Date | Parm | Value | Avg | % Avg
Sort by: ID | Name | Date | Parm | Value | Avg | % Avg

Enter search or view all records.

Click on id for station plot
#IDNameDateParmValueAvg% Avg
0HWRI1BIG LOST-AT HOWELL RANCH NEAR CHILLY12-05-2022DISCHARGE (KAF)171891
1MACI1BIG LOST-MACKAY RESERVOIR NEAR MACKAY12-05-2022INFLOW (KAF)303878
2HALI1BIG WOOD-AT HAILEY12-05-2022DISCHARGE (KAF)304076
3MAGI1BIG WOOD-MAGIC DAM12-05-2022INFLOW (KAF)273676
4BITM8BITTERROOT-NEAR MISSOULA12-05-2022DISCHARGE (KAF)16821777
5BONM8BLACKFOOT-NEAR BONNER12-05-2022DISCHARGE (KAF)11414777
6BIGI1BOISE-AT GLENWOOD BRIDGE12-05-2022DISCHARGE (KAF)13466204
7LUCI1BOISE-LUCKY PEAK DAM12-05-2022INFLOW (KAF)20122191
8PARI1BOISE-NEAR PARMA12-05-2022DISCHARGE (KAF)273199137
9HOTI1BRUNEAU-NEAR HOT SPRINGS12-05-2022DISCHARGE (KAF)153839
10BULO3BULLY CREEK-BULLY CREEK DAM12-05-2022INFLOW (KAF)215414
11BUDW1BUMPING-BUMPING LAKE DAM12-05-2022INFLOW (KAF)194047
12CHDW1CHELAN-LAKE CHELAN DAM12-05-2022INFLOW (KAF)6420931
13ABOM8CLARK FORK-ABOVE MISSOULA12-05-2022DISCHARGE (KAF)28434782
14DLGM8CLARK FORK-AT DEER LODGE12-05-2022DISCHARGE (KAF)435283
15SRGM8CLARK FORK-AT ST REGIS12-05-2022DISCHARGE (KAF)54577870
16BELM8CLARK FORK-BELOW MISSOULA12-05-2022DISCHARGE (KAF)44157677
17CABI1CLARK FORK-CABINET GORGE DAM12-05-2022INFLOW (KAF)2685361474
18NOXM8CLARK FORK-NOXON RAPIDS DAM12-05-2022INFLOW (KAF)2428314577
19DRMM8CLARK FORK-NR DRUMMOND12-05-2022DISCHARGE (KAF)11212888
20CLUW1CLE ELUM-CLE ELUM LAKE12-05-2022INFLOW (KAF)5311845
21ORFI1CLEARWATER-AT OROFINO12-05-2022DISCHARGE (KAF)510110746
22SPDI1CLEARWATER-AT SPALDING12-05-2022DISCHARGE (KAF)1179207257
23COEI1COEUR D ALENE-COEUR D ALENE LAKE12-05-2022INFLOW (KAF)835132663
24CIBW1COLUMBIA-AT INTL BOUNDARY12-05-2022DISCHARGE (KAF)156441970379
25BONO3COLUMBIA-BONNEVILLE DAM12-05-2022INFLOW (KAF)300633920177
26CHJW1COLUMBIA-CHIEF JOSEPH DAM12-05-2022INFLOW (KAF)203402386685
27GCDW1COLUMBIA-GRAND COULEE DAM12-05-2022INFLOW (KAF)168372163478
28JDAO3COLUMBIA-JOHN DAY DAM12-05-2022INFLOW (KAF)291133672679
29MCDW1COLUMBIA-MCNARY DAM12-05-2022INFLOW (KAF)276033499479
30PRWW1COLUMBIA-PRIEST RAPIDS DAM12-05-2022INFLOW (KAF)209932562182
31RRHW1COLUMBIA-ROCKY REACH DAM12-05-2022INFLOW (KAF)208462492784
32TDAO3COLUMBIA-THE DALLES DAM12-05-2022INFLOW (KAF)292243738478
33WANW1COLUMBIA-WANAPUM DAM12-05-2022INFLOW (KAF)209952554582
34WELW1COLUMBIA-WELLS DAM12-05-2022INFLOW (KAF)206042452484
35DEDI1DEADWOOD-NEAR LOWMAN12-05-2022INFLOW (KAF)132068
36MODO3DESCHUTES-AT MOODY NR BIGGS12-05-2022DISCHARGE (KAF)936143265
37ARDW1ENTIAT-NEAR ARDENVOIR12-05-2022DISCHARGE (KAF)142751
38CHEI1FALL RIVER-NEAR CHESTER12-05-2022DISCHARGE (KAF)9911388
39CFMM8FLATHEAD-AT COLUMBIA FALLS12-05-2022DISCHARGE (KAF)86097888
40KERM8FLATHEAD-SELI’Š KSANKA QLISPE’ DAM12-05-2022INFLOW (KAF)955144666
41TRYO3GRANDE RONDE-TROY12-05-2022DISCHARGE (KAF)28855952
42REXI1HENRYS FORK-AT REXBURG12-05-2022DISCHARGE (KAF)34343778
43ANTI1HENRYS FORK-AT ST. ANTHONY12-05-2022DISCHARGE (KAF)30238179
44IPDI1HENRYS FORK-ISLAND PARK DAM12-05-2022INFLOW (KAF)8010576
45HODO3HOOD-NEAR TUCKER BRIDGE12-05-2022DISCHARGE (KAF)279252111
46SERO3JOHN DAY-AT SERVICE CK12-05-2022DISCHARGE (KAF)19741548
47KADW1KACHESS-KACHESS DAM12-05-2022INFLOW (KAF)325262
48LAUW1KETTLE-AT LAURIER12-05-2022DISCHARGE (KAF)7117840
49PITW1KLICKITAT-NEAR PITT12-05-2022DISCHARGE (KAF)33238985
50BFEI1KOOTENAI-AT BONNERS FERRY12-05-2022STAGE (FT)MMM
51LEOI1KOOTENAI-AT LEONIA12-05-2022DISCHARGE (KAF)1720227576
52LYDM8KOOTENAI-LIBBY DAM12-05-2022INFLOW (KAF)61384173
53LWRI1LITTLE WOOD-LITTLE WOOD DAM12-05-2022INFLOW (KAF)91752
54BERO3MALHEUR-AGENCY VALLEY DAM12-05-2022INFLOW (KAF)172664
55WRMO3MALHEUR-WARM SPRINGS DAM12-05-2022INFLOW (KAF)244750
56MYKO3MCKAY CREEK-NEAR PILOT ROCK12-05-2022DISCHARGE (KAF)4138110
57PATW1METHOW-NEAR PATEROS12-05-2022DISCHARGE (KAF)7511267
58WGCM8MF FLATHEAD-NEAR WEST GLACIER12-05-2022DISCHARGE (KAF)4216925
59CLFW1NACHES-NEAR CLIFFDEL12-05-2022DISCHARGE (KAF)5913543
60NACW1NACHES-NEAR NACHES12-05-2022DISCHARGE (KAF)5918831
61DWRI1NF CLEARWATER-DWORSHAK DAM12-05-2022INFLOW (KAF)57988066
62FCFM8NF FLATHEAD-NEAR COLUMBIA FALLS12-05-2022DISCHARGE (KAF)11218760
63MONO3NF JOHN DAY-AT MONUMENT12-05-2022DISCHARGE (KAF)11726544
64CSDI1NF PAYETTE-CASCADE DAM12-05-2022INFLOW (KAF)6811560
65TONW1OKANOGAN-NEAR TONASKET12-05-2022DISCHARGE (KAF)19032159
66OWYO3OWYHEE-OWYHEE DAM12-05-2022INFLOW (KAF)174171101
67EMMI1PAYETTE-NEAR EMMETT12-05-2022DISCHARGE (KAF)31239080
68ALFW1PEND OREILLE-ALBENI FALLS DAM12-05-2022INFLOW (KAF)3022412773
69HOPI1PEND OREILLE-PEND OREILLE LAKE NR HOPE12-05-2022LAKE ELEVATION (FT)MMM
70PIHI1PORTNEUF-AT POCATELLO12-05-2022DISCHARGE (KAF)415772
71PRTI1PRIEST-NEAR PRIEST RIVER12-05-2022DISCHARGE (KAF)12825251
72RCCM8ROCK CREEK-NEAR CLINTON12-05-2022DISCHARGE (KAF)4847102
73WHBI1SALMON-AT WHITEBIRD12-05-2022DISCHARGE (KAF)853111577
74ARAI1SF BOISE-ANDERSON RANCH DAM12-05-2022INFLOW (KAF)819585
75HHWM8SF FLATHEAD-HUNGRY HORSE DAM12-05-2022INFLOW (KAF)13026749
76PLDI1SF SNAKE-PALISADES DAM12-05-2022INFLOW (KAF)45459177
77SIFI1SNAKE-AB EAGLE ROCK NR IDAHO FALLS12-05-2022DISCHARGE (KAF)67468299
78AFRI1SNAKE-AMERICAN FALLS RESERVOIR12-05-2022INFLOW (KAF)12131211100
79SNAI1SNAKE-AT BLACKFOOT12-05-2022DISCHARGE (KAF)57759996
80MILI1SNAKE-AT MILNER12-05-2022DISCHARGE (KAF)485488
81WEII1SNAKE-AT WEISER12-05-2022DISCHARGE (KAF)2870302795
82SWAI1SNAKE-BELOW SWAN FALLS12-05-2022DISCHARGE (KAF)1760187794
83BRNI1SNAKE-BROWNLEE DAM12-05-2022INFLOW (KAF)3108327795
84IHDW1SNAKE-ICE HARBOR DAM12-05-2022INFLOW (KAF)5972827572
85JLKW4SNAKE-JACKSON LAKE AT DAM12-05-2022INFLOW (KAF)7911768
86LGSW1SNAKE-LITTLE GOOSE DAM12-05-2022INFLOW (KAF)5502809068
87LGDW1SNAKE-LOWER GRANITE DAM12-05-2022INFLOW (KAF)5502805068
88LMNW1SNAKE-LOWER MONUMENTAL DAM12-05-2022INFLOW (KAF)5972824572
89ALPW4SNAKE-NEAR ALPINE12-05-2022DISCHARGE (KAF)28637776
90ANAW1SNAKE-NEAR ANATONE12-05-2022DISCHARGE (KAF)4322581674
91BFTI1SNAKE-NEAR BLACKFOOT12-05-2022DISCHARGE (KAF)57858699
92HEII1SNAKE-NEAR HEISE12-05-2022DISCHARGE (KAF)509395129
93JKSW4SNAKE-NEAR JACKSON12-05-2022DISCHARGE (KAF)25031679
94SHYI1SNAKE-NEAR SHELLEY12-05-2022DISCHARGE (KAF)64868595
95LLKW1SPOKANE-AT LONGLAKE12-05-2022INFLOW (KAF)1059170262
96SPOW1SPOKANE-AT SPOKANE12-05-2022DISCHARGE (KAF)756142153
97SJMI1ST JOE-AT ST MARIES12-05-2022STAGE (FT)MMM
98SATI1ST MARIES-NEAR SANTA12-05-2022DISCHARGE (KAF)278134
99STRM8ST. REGIS-NEAR ST. REGIS12-05-2022DISCHARGE (KAF)195435
100TNAW1TEANAWAY-BELOW FORKS12-05-2022DISCHARGE (KAF)476473
101TEAI1TETON-NEAR ST. ANTHONY12-05-2022DISCHARGE (KAF)729973
102RILW1TIETON-RIMROCK LAKE NEAR RIMROCK12-05-2022INFLOW (KAF)457857
103PDTO3UMATILLA-AT PENDLETON12-05-2022DISCHARGE (KAF)13415388
104GIBO3UMATILLA-NEAR GIBBON12-05-2022DISCHARGE (KAF)546091
105UMAO3UMATILLA-NEAR UMATILLA12-05-2022DISCHARGE (KAF)12714687
106TCHW1WALLA WALLA-NEAR TOUCHET12-05-2022DISCHARGE (KAF)17020682
107WSRI1WEISER-NEAR WEISER12-05-2022DISCHARGE (KAF)21021299
108PESW1WENATCHEE-AT PESHASTIN12-05-2022DISCHARGE (KAF)14934743
109UNDW1WHITE SALMON-NEAR UNDERWOOD12-05-2022DISCHARGE (KAF)24529384
110RIDI1WILLOW CREEK-RIRIE DAM12-05-2022INFLOW (KAF)61543
111EASW1YAKIMA-AT EASTON12-05-2022DISCHARGE (KAF)488458
112KIOW1YAKIMA-AT KIONA12-05-2022DISCHARGE (KAF)49285557
113UMTW1YAKIMA-AT UMTANUM12-05-2022DISCHARGE (KAF)22635863
114KEDW1YAKIMA-KEECHELUS LAKE12-05-2022INFLOW (KAF)345363
115PARW1YAKIMA-NEAR PARKER12-05-2022DISCHARGE (KAF)35059259